Home > Weather > Peterborough > Past weeks

Flag for Canada Weather for the Past 2 Weeks in Peterborough, Ontario, Canada

Now
-15 °F

Clear.


Feels Like: -31 °F
Forecast: -16 / 5 °F
Wind: 7 mph from Northwest

Location: Peterborough Airport

Current Time: Feb 14, 2016 at 12:56:02 AM

Latest Report: Feb 14, 2016 at 12:00 AM


Visibility: 9 mi

Pressure: 30.53 "Hg

Humidity: 57%

Dew point: -26 °F

Location of PeterboroughLocation

Historic Weather in Peterborough — Graph

°F

Peterborough Temperature Yesterday

Maximum temperature yesterday: 5 °F (at 12:00 AM)
Minimum temperature yesterday: -18 °F (at 7:00 AM)
Average temperature yesterday: -11 °F

High & Low Weather Summary for the Past Weeks

 TemperatureHumidityPressure
High54 °F (Feb 3, 4:00 PM)100% (Jan 30, 11:00 PM)30.53 "Hg (Jan 30, 11:00 PM)
Low-18 °F (Feb 13, 7:00 AM)48% (Feb 13, 2:00 PM)29.42 "Hg (Feb 1, 1:00 AM)
Average26 °F79%29.92 "Hg
* Reported Jan 29 11:00 PM — Feb 13 11:00 PM, Peterborough, Weather by CustomWeather, © 2016

Note: Actual official high and low records may vary slightly from our data, if they occured in-between our weather recording intervals... More about our weather records

Advertising

Peterborough Weather History for the Previous 24 Hours

 ConditionsComfort  
Time TempWeatherWind HumidityBarometerVisibility
11:00 PM
Sat, Feb 13
-15 °FClear.5 mph57%30.53 "Hg9 mi
10:00 PM-13 °FClear.9 mph52%30.52 "Hg9 mi
9:00 PM-13 °FClear.13 mph57%30.50 "Hg9 mi
8:00 PM-11 °FClear.7 mph58%30.48 "Hg9 mi
7:00 PM-11 °FClear.8 mph58%30.45 "Hg9 mi
6:00 PM-9 °FClear.10 mph53%30.42 "Hg9 mi
5:00 PM-8 °FSunny.15 mph48%30.40 "Hg9 mi
4:00 PM-8 °FSunny.15 mph48%30.37 "Hg9 mi
3:00 PM-8 °FSunny.18 mph53%30.36 "Hg9 mi
2:00 PM-8 °FSunny.16 mph48%30.36 "Hg9 mi
1:00 PM-9 °FSunny.15 mph53%30.36 "Hg9 mi
12:00 PM-13 °FSunny.16 mph57%30.37 "Hg9 mi
11:00 AM-15 °FSunny.15 mph57%30.37 "Hg9 mi
10:00 AM-17 °FSunny.12 mph57%30.36 "Hg9 mi
9:00 AM-18 °FSunny.17 mph56%30.34 "Hg9 mi
8:00 AM-18 °FSunny.15 mph56%30.31 "Hg9 mi
7:00 AM-18 °FClear.17 mph62%30.27 "Hg9 mi
6:00 AM-17 °FClear.13 mph63%30.24 "Hg9 mi
5:00 AM-15 °FClear.13 mph63%30.21 "Hg9 mi
4:00 AM-11 °FClear.13 mph70%30.16 "Hg9 mi
3:00 AM-8 °FClear.18 mph70%30.11 "Hg9 mi
2:00 AM-4 °FClear.16 mph71%30.07 "Hg9 mi
1:00 AM1 °FClear.14 mph78%30.03 "Hg9 mi
12:00 AM5 °FClear.17 mph78%29.98 "Hg9 mi
Weather by CustomWeather, © 2016

See weather overviewHow to use our weather pages